"Pseudo-MPEC" for P20OOaI

Created 2019 Jun 14 2:10:07 UT using Find_Orb

Click here for an explanation of pseudo-MPECs

 
 Astrometry: 
     P20OOaI  C2019 05 313)r/m)S0y^#bC)UT%r,v.%])L)6AstrometryycC3m;v:xOKQgN9F52
     P20OOaI  C2019 05 31DKvy!q2QYlhbqRr5u+(j[Bh0G?RP2v!.uredacted;[cFH:%:\A2F52
     P20OOaI  C2019 05 31-s*BniJ8JG5Hygxe=s85\8]Pqw280s1:Y^@K.g+w6*dho'BBsXXeF52
     P20OOaI  C2019 06 07;.\9tclickN#m_qcrU*CdKNa;here2^[a#5^[C7mqep?%g(wwfu;F52
     P20OOaI  C2019 06 07l#Va6\EqxO3dgrb$eYD5xIW[T!uIGy%/ib.`:hi'-Tn%MEOqZ(tkF52
     P20OOaI  C2019 06 07ctypHfINO8j7R*forBegP3lF`7O1LW+q@q9Ps%SG.kkEwO%s:lINF52
     P20OOaI |C2019 06 089Ih*yT0V_(Q?SjII(1Gs0EI6=\hEOk44DhD!',!3PJ:S'BdNotsr807
     P20OOaI |C2019 06 08d86!Z[*KIJ7=%sw1explanationte;DYn%U2TJ`MC%eYZynd%]O/807
     P20OOaI |C2019 06 08T(Q?Z!uN*:4Ubx%'1_'Y$`wa5a;iiFbFcB!8J[CdpR2*x9;]tt;Z807
     P20OOaI |C2019 06 09LIgqlVTV[vWsmpdc]u,[hG=vZQ6!i.GyL0-RAZS4+qQ-TL:5o;.2807
     P20OOaI |C2019 06 09kBcG26@fjFhT-tuhM0MyaZ-hNC]D+I5'f]9+M4qq49KBgGdo17nL807
     P20OOaI ^C2019 06 12K!:TxQx]TgdAJXLRFwI4jO01PtaetgkP\E(gwfBd*ciiu@xQdMau695
     P20OOaI ^C2019 06 12#6!P,FBE//BOQaYnPv]KlWICAQ_=.usMvI3wPUB9dehp!dVQ[DY^695

Station data:
(695) Kitt Peak  (N31.958398 W111.594670)  US/Arizona.
(807) Cerro Tololo Observatory, La Serena  (S30.169136 W70.805900)  Chile.
(F52) Pan-STARRS 2, Haleakala  (N20.707384 W156.255910)  US/Hawaii. 1.8-m
   Ritchey-Chrétien + CCD.

Orbital elements:  P20OOaI
   Perihelion 2019 Sep 15.028302 +/- 0.0269 TT =  0:40:45 (JD 2458741.528302)
Epoch 2019 Jun 12.0 TT = JDT 2458646.5   Earth MOID: 0.1430   Me: 0.0526
M 327.25016626 +/- 0.12             (J2000 ecliptic)          AutoNEOCP
n   0.34463242 +/- 0.0012           Peri.  182.69272 +/- 0.07
a   2.01480009 +/- 0.00466          Node   211.79070 +/- 0.15
e   0.8729318 +/- 0.00105           Incl.   10.66618 +/- 0.055
P   2.86                   H 19.9   G  0.15   U  8.2  
q 0.25601688 +/- 0.00151    Q 3.77358329 +/- 0.0108
From 13 observations 2019 May 31-June 12; mean residual 0".13
Residuals in arcseconds: 
190531 F52  .11+  .11-    190607 F52  .01-  .18+    190609 807  .10+  .08-    
190531 F52  .14-  .10-    190608 807  .21-  .06+    190612 695  .07-  .21-    
190531 F52  .03+  .18+    190608 807  .07-  .11+    190612 695  .01+  .22+    
190607 F52  .04+  .04-    190608 807  .03-  .25-    
190607 F52  .00   .05+    190609 807  .22+  .05-    

Ephemerides (geocentric):
Date (UTC) HH   RA              Dec         delta   r     elong  mag " sig PA
---- -- -- --  -------------   -----------  ------ ------ -----  --- ---- ---
2019 06 14 02  15 20 01.157   -04 28 29.98  .82845 1.7548 144.0 21.7 .370   4
2019 06 14 03  15 19 53.466   -04 27 51.22  .82828 1.7543 143.9 21.7 .375   4
2019 06 14 04  15 19 45.775   -04 27 12.46  .82810 1.7538 143.9 21.7 .380   4
2019 06 14 05  15 19 38.084   -04 26 33.72  .82793 1.7533 143.8 21.7 .386   4
2019 06 14 06  15 19 30.393   -04 25 54.98  .82775 1.7528 143.7 21.7 .391   4
2019 06 14 07  15 19 22.703   -04 25 16.26  .82758 1.7523 143.7 21.7 .397   4
2019 06 14 08  15 19 15.013   -04 24 37.55  .82741 1.7518 143.6 21.7 .403   3
2019 06 14 09  15 19 07.323   -04 23 58.86  .82724 1.7513 143.5 21.7 .408   3
2019 06 14 10  15 18 59.633   -04 23 20.18  .82706 1.7508 143.5 21.7 .414   3
2019 06 14 11  15 18 51.944   -04 22 41.50  .82689 1.7503 143.4 21.7 .420   3
2019 06 14 12  15 18 44.255   -04 22 02.84  .82672 1.7498 143.3 21.7 .425   3
2019 06 14 13  15 18 36.567   -04 21 24.20  .82655 1.7493 143.3 21.7 .431   2
2019 06 14 14  15 18 28.878   -04 20 45.56  .82638 1.7488 143.2 21.7 .437   2
2019 06 14 15  15 18 21.191   -04 20 06.94  .82621 1.7483 143.1 21.7 .443   2
2019 06 14 16  15 18 13.503   -04 19 28.34  .82605 1.7478 143.0 21.7 .449   2
2019 06 14 17  15 18 05.817   -04 18 49.74  .82588 1.7473 143.0 21.7 .455   2
2019 06 14 18  15 17 58.130   -04 18 11.16  .82571 1.7468 142.9 21.7 .461   2
2019 06 14 19  15 17 50.444   -04 17 32.59  .82554 1.7463 142.8 21.7 .467   1
2019 06 14 20  15 17 42.759   -04 16 54.03  .82538 1.7458 142.8 21.7 .473   1
2019 06 14 21  15 17 35.073   -04 16 15.49  .82521 1.7453 142.7 21.7 .479   1
2019 06 14 22  15 17 27.389   -04 15 36.96  .82505 1.7448 142.6 21.7 .485   1
2019 06 14 23  15 17 19.705   -04 14 58.44  .82488 1.7443 142.6 21.7 .491   1
2019 06 15 00  15 17 12.021   -04 14 19.94  .82472 1.7438 142.5 21.7 .497   1
2019 06 15 01  15 17 04.338   -04 13 41.45  .82455 1.7433 142.4 21.7 .504   0
2019 06 15 02  15 16 56.656   -04 13 02.97  .82439 1.7428 142.4 21.7 .510   0
2019 06 15 03  15 16 48.974   -04 12 24.51  .82423 1.7423 142.3 21.7 .516   0
2019 06 15 04  15 16 41.293   -04 11 46.06  .82407 1.7418 142.2 21.7 .523   0
2019 06 15 05  15 16 33.612   -04 11 07.63  .82390 1.7412 142.1 21.7 .529   0
2019 06 15 06  15 16 25.932   -04 10 29.21  .82374 1.7407 142.1 21.7 .535   0
2019 06 15 07  15 16 18.253   -04 09 50.80  .82358 1.7402 142.0 21.7 .542 179
2019 06 15 08  15 16 10.574   -04 09 12.41  .82342 1.7397 141.9 21.7 .549 179
2019 06 15 09  15 16 02.896   -04 08 34.03  .82326 1.7392 141.9 21.7 .555 179
2019 06 15 10  15 15 55.218   -04 07 55.67  .82310 1.7387 141.8 21.7 .562 179
2019 06 15 11  15 15 47.541   -04 07 17.32  .82294 1.7382 141.7 21.7 .568 179
2019 06 15 12  15 15 39.865   -04 06 38.98  .82279 1.7377 141.7 21.7 .575 179
2019 06 15 13  15 15 32.190   -04 06 00.66  .82263 1.7372 141.6 21.7 .582 178
2019 06 15 14  15 15 24.515   -04 05 22.35  .82247 1.7367 141.5 21.7 .589 178
2019 06 15 15  15 15 16.841   -04 04 44.06  .82231 1.7362 141.4 21.7 .595 178
2019 06 15 16  15 15 09.168   -04 04 05.78  .82216 1.7357 141.4 21.7 .602 178
2019 06 15 17  15 15 01.496   -04 03 27.52  .82200 1.7352 141.3 21.7 .609 178
2019 06 15 18  15 14 53.824   -04 02 49.28  .82185 1.7347 141.2 21.7 .616 178
2019 06 15 19  15 14 46.153   -04 02 11.04  .82169 1.7342 141.2 21.7 .623 178
2019 06 15 20  15 14 38.483   -04 01 32.83  .82154 1.7337 141.1 21.7 .630 177
2019 06 15 21  15 14 30.814   -04 00 54.62  .82139 1.7332 141.0 21.7 .637 177
2019 06 15 22  15 14 23.146   -04 00 16.44  .82123 1.7327 141.0 21.7 .644 177
2019 06 15 23  15 14 15.479   -03 59 38.27  .82108 1.7322 140.9 21.7 .651 177
2019 06 16 00  15 14 07.812   -03 59 00.11  .82093 1.7317 140.8 21.7 .658 177
2019 06 16 01  15 14 00.146   -03 58 21.97  .82078 1.7311 140.8 21.7 .666 177